Regional Weather Roundup
Issued by NWS Northern Indiana

Home | Current Version | Previous Version | Graphics & Text | Print | Product List | Glossary On
Versions: 1 2 3 4 5 6 7 8 9 10 11 12 13 14 15 16 17 18 19 20 21 22 23 24 25 26 27 28 29 30 31 32 33 34 35 36 37 38 39 40 41 42 43 44 45 46 47 48 49 50
000
ASUS43 KIWX 271500
RWRIWX

KIWX WEATHER ROUNDUP
NATIONAL WEATHER SERVICE NORTHERN INDIANA
1000 AM EST TUE JAN 27 2015

NOTE: "FAIR" INDICATES FEW OR NO CLOUDS BELOW 12,000 FEET WITH NO
SIGNIFICANT WEATHER AND/OR OBSTRUCTIONS TO VISIBILITY.

* THESE STATIONS ARE NOT UNDER NWS QUALITY CONTROL. THEY ALSO MAY NOT
  REPORT WEATHER SUCH AS PRECIPITATION OR FOG.

INZ001>027-271600-
NORTHERN INDIANA

CITY           SKY/WX    TMP DP  RH WIND       PRES   REMARKS
GARY*          CLOUDY    28  18  64 NE9       30.12R WCI  20
SOUTH BEND     CLOUDY    23  12  62 NE8       30.12R WCI  14
ELKHART*       PTSUNNY   21   9  58 NE6       30.12R WCI  14
GOSHEN         CLOUDY    21  13  71 E8        30.10R WCI  11
ANGOLA*        SUNNY     18  10  73 E8        30.08S WCI   7
FORT WAYNE     PTSUNNY   18  11  74 NE7       30.10R WCI   9

$$
INZ028>050-271600-
CENTRAL INDIANA

CITY           SKY/WX    TMP DP  RH WIND       PRES   REMARKS
LAFAYETTE      CLOUDY    25  22  88 NE9       30.09R FOG     WCI  15
KOKOMO*        CLOUDY    21  12  68 E6        30.09R WCI  14
MUNCIE*        PTSUNNY   20  11  68 E7        30.07R WCI  11
INDIANAPOLIS   CLOUDY    24  21  88 NE8       30.07R WCI  15

$$
MIZ043>046-050>051-056>058-064>065-071>073-077>080-271600-
SOUTHWEST LOWER MICHIGAN

CITY           SKY/WX    TMP DP  RH WIND       PRES   REMARKS
BATTLE CREEK   SUNNY     20  11  68 NE7       30.11R WCI  11
BENTON HARBOR  SUNNY     22  13  68 NE8       30.13R WCI  12
COLDWATER*     MOSUNNY   19  12  76 NE10      30.10R WCI   7
HILLSDALE*     SUNNY     17  11  77 N5        30.07R WCI  10
HOLLAND        SUNNY     21  12  68 E8        30.15R WCI  11
GRAND RAPIDS   PTSUNNY   19  11  70 NE7       30.14R WCI  10
KALAMAZOO      SUNNY     20  11  68 NE6       30.12R WCI  12
STURGIS*       CLOUDY    19  12  73 E9        30.10R WCI   9
THREE RIVERS*  FAIR      20  13  75 NE8       30.12R WCI  11

$$
OHZ001>008-015>018-024>025-271600-
NORTHWEST OHIO

CITY           SKY/WX    TMP DP  RH WIND       PRES   REMARKS
DEFIANCE       MOSUNNY   20  12  71 NE8       30.12R WCI  10
FINDLAY        SUNNY     16  10  77 NE9       30.07R WCI   4
TOLEDO EXPRESS SUNNY     18  11  74 N7        30.10R WCI   9
TOLEDO METCALF SUNNY     18  11  74 N3        30.10R
LIMA           MOSUNNY   14  10  84 NE5       30.06R FOG     WCI   6

$$
AND FOR LAKE MICHIGAN COASTAL AND OPEN LAKE BUOY OBSERVATIONS

STATION/POSITION TEMP    WIND        PRES    VSBY  WAVE
                 AIR SEA DIR/SP/G                  HT/PER
                 (F)     (DEG/KT/KT) (MB)    (MI)  (FT/S)
CALUMET HARBOR    28      50/  9/ 10   N/A
MICHIGAN CITY     24      50/  4/  5   N/A
SAINT JOSEPH      21      70/  1/  6 1019.6R

$$
&&



USA.gov is the U.S. government's official web portal to all federal, state and local government web resources and services.